Terug naar catalogus

DUBAISAT 1

ActiefWetenschapSSO
NORAD 35682·PAYLOAD·🇦🇪 UAE

Gelanceerd Jul 29, 2009 vanaf Baikonur Cosmodrome

Loading…

Volgende Passages (komende 24 uur)

TLE

VersSource: Space-Track

Epoch: Sep 13, 2026, 22:40 UTC

1 35682U 09041B   26256.94498807  .00000672  00000-0  10682-3 0  9993
2 35682  98.0176  29.2981 0011202 140.6087 219.5939 14.75249544918180

Volg DUBAISAT 1 in realtime met AllMySat

Download on the App Store